Location: Callao
(39.8979°N, 113.7141°W)
Time: 16:46:28
(UTC+00:00)

AO-91 - Pass Details

Date: 18 May 2021
Orbit: 453 x 808 km, 97.7° (Epoch: 19 June)

Event Time Altitude Azimuth Distance (km) Brightness Sun altitude
Rises 07:51:17 0° 359° (N) 2,819 ? -30.3°
Reaches altitude 10° 07:53:35 10° 347° (NNW) 1,974 ? -30.2°
Enters shadow 07:56:15 26° 312° (NW) 1,282 ? -30.2°
